This is the latest recevied weather packets stored in our database for station/object WR9A-13. If no packets are shown the sender has not sent any weather packets the latest 10 day(s).
| Time | Temp. | Humidity | Pressure | Rain* | Wind** | Luminosity | Snow |
|---|---|---|---|---|---|---|---|
| 1788123328 | 28.89° C | 69% | 1017.3 hPa | 0 mm | - | - | - |
| 1788123016 | 28.89° C | 67% | 1017.3 hPa | 0 mm | - | - | - |
| 1788122733 | 28.89° C | 67% | 1017.3 hPa | 0 mm | - | - | - |
| 1788122420 | 29.44° C | 68% | 1017.3 hPa | 0 mm | - | - | - |
| 1788122117 | 29.44° C | 67% | 1017.3 hPa | 0 mm | - | - | - |
| 1788121834 | 29.44° C | 67% | 1017.4 hPa | 0 mm | - | - | - |
| 1788121525 | 29.44° C | 67% | 1017.4 hPa | 0 mm | - | - | - |
| 1788121241 | 29.44° C | 66% | 1017.6 hPa | 0 mm | - | - | - |
| 1788120929 | 30° C | 68% | 1017.5 hPa | 0 mm | - | - | - |
| 1788120617 | 30° C | 68% | 1017.6 hPa | 0 mm | - | - | - |
| 1788120314 | 30° C | 67% | 1017.8 hPa | 0 mm | - | - | - |
| 1788120026 | 30° C | 69% | 1017.9 hPa | 0 mm | - | - | - |
| 1788119714 | 30° C | 69% | 1018.1 hPa | 0 mm | - | - | - |
| 1788119431 | 29.44° C | 69% | 1018.3 hPa | 0 mm | - | - | - |
| 1788119119 | 29.44° C | 69% | 1018.4 hPa | 0 mm | - | - | - |
| 1788118815 | 28.89° C | 70% | 1018.5 hPa | 0 mm | - | - | - |
| 1788118522 | 28.89° C | 71% | 1018.5 hPa | 0 mm | - | - | - |
| 1788118218 | 28.33° C | 72% | 1018.5 hPa | 0 mm | - | - | - |
| 1788117925 | 28.33° C | 73% | 1018.5 hPa | 0 mm | - | - | - |
| 1788117621 | 27.78° C | 74% | 1018.7 hPa | 0 mm | - | - | - |
| 1788117329 | 27.22° C | 73% | 1018.9 hPa | 0 mm | - | - | - |
| 1788117025 | 27.22° C | 72% | 1019.1 hPa | 0 mm | - | - | - |
| 1788116742 | 27.22° C | 73% | 1018.9 hPa | 0 mm | - | - | - |
| 1788116425 | 27.22° C | 72% | 1018.9 hPa | 0 mm | - | - | - |
| 1788116121 | 27.22° C | 73% | 1018.9 hPa | 0 mm | - | - | - |
* Rain latest hour (hover to see other rain measurements)
** Current wind speed in m/s (hover to see current wind gust speed)